Location: St. Louis
(38.6270°N, 90.1994°W)
Time: 01:45:06
(UTC-06:00)

Transit 2A - Pass Details

Date: 09 December 2021
Orbit: 591 x 966 km, 66.7° (Epoch: 24 January)

Event Time Altitude Azimuth Distance (km) Brightness Sun altitude
Rises 23:18:01 0° 235° (SW) 3,307 - -72.6°
Reaches altitude 10° 23:20:34 10° 245° (WSW) 2,439 - -72.8°
Maximum altitude 23:25:42 34° 309° (NW) 1,427 - -73.2°
Drops below altitude 10° 23:31:15 10° 13° (NNE) 2,645 - -73.6°
Sets 23:34:09 0° 22° (NNE) 3,626 - -73.8°
